TimeMST,TemperatureF,Dew PointF,Humidity,Sea Level PressureIn,VisibilityMPH,Wind Direction,Wind SpeedMPH,Gust SpeedMPH,PrecipitationIn,Events,Conditions,WindDirDegrees,DateUTC
12:00 AM,42.6,31.8,66,-9999,-9999.0,WSW,6.9,-,N/A,,Unknown,250,2013-03-02 07:00:00
1:00 AM,38.7,30.7,73,-9999,-9999.0,WSW,5.8,-,N/A,,Unknown,250,2013-03-02 08:00:00
2:00 AM,34.7,29.7,82,-9999,-9999.0,South,3.5,-,N/A,,Unknown,170,2013-03-02 09:00:00
3:00 AM,31.5,29.5,92,-9999,-9999.0,South,5.8,-,N/A,,Unknown,190,2013-03-02 10:00:00
4:00 AM,40.3,32.0,72,-9999,-9999.0,SW,8.1,-,N/A,,Unknown,220,2013-03-02 11:00:00
5:00 AM,38,31,69,,,SW,8.1,,,,,230,2013-03-02 12:00:00
5:00 AM,37.6,31.5,79,-9999,-9999.0,SW,8.1,-,N/A,,Unknown,230,2013-03-02 12:00:00
6:00 AM,46.9,32.0,56,-9999,-9999.0,WSW,16.1,-,N/A,,Unknown,250,2013-03-02 13:00:00
7:00 AM,45.7,31.3,57,-9999,-9999.0,WSW,13.8,-,N/A,,Unknown,250,2013-03-02 14:00:00
8:00 AM,47.7,30.6,52,-9999,-9999.0,WSW,18.4,-,N/A,,Unknown,250,2013-03-02 15:00:00
9:00 AM,49.8,29.8,46,-9999,-9999.0,WSW,18.4,-,N/A,,Unknown,250,2013-03-02 16:00:00
10:00 AM,52.3,30.7,44,-9999,-9999.0,WSW,23.0,-,N/A,,Unknown,240,2013-03-02 17:00:00
11:00 AM,53,31,30,,,WSW,18.4,,,,,240,2013-03-02 18:00:00
11:00 AM,53.4,30.6,42,-9999,-9999.0,WSW,18.4,-,N/A,,Unknown,240,2013-03-02 18:00:00
12:00 PM,55.0,30.0,38,-9999,-9999.0,WSW,15.0,-,N/A,,Unknown,250,2013-03-02 19:00:00
1:00 PM,50.5,30.9,47,-9999,-9999.0,NNW,5.8,-,N/A,,Unknown,330,2013-03-02 20:00:00
2:00 PM,52.0,30.6,44,-9999,-9999.0,NW,5.8,-,N/A,,Unknown,320,2013-03-02 21:00:00
3:00 PM,55.9,27.3,33,-9999,-9999.0,WSW,16.1,-,N/A,,Unknown,250,2013-03-02 22:00:00
4:00 PM,54.1,26.1,34,-9999,-9999.0,WSW,15.0,-,N/A,,Unknown,250,2013-03-02 23:00:00
5:00 PM,48,30,36,,,WNW,4.6,,,,,300,2013-03-03 00:00:00
5:00 PM,48.0,29.7,49,-9999,-9999.0,WNW,4.6,-,N/A,,Unknown,300,2013-03-03 00:00:00
6:00 PM,38.8,30.4,72,-9999,-9999.0,WNW,5.8,-,N/A,,Unknown,300,2013-03-03 01:00:00
7:00 PM,34.3,29.3,82,-9999,-9999.0,NNE,3.5,-,N/A,,Unknown,30,2013-03-03 02:00:00
8:00 PM,41.2,29.7,64,-9999,-9999.0,West,10.4,-,N/A,,Unknown,270,2013-03-03 03:00:00
9:00 PM,43.0,31.6,64,-9999,-9999.0,SW,11.5,-,N/A,,Unknown,220,2013-03-03 04:00:00
10:00 PM,39.2,31.5,74,-9999,-9999.0,SSW,9.2,-,N/A,,Unknown,200,2013-03-03 05:00:00
11:00 PM,35,30,75,,,South,5.8,,,,,190,2013-03-03 06:00:00
11:00 PM,34.9,30.0,82,-9999,-9999.0,South,5.8,-,N/A,,Unknown,190,2013-03-03 06:00:00